Find Local Weather

World > North America > United States > North Carolina

Ahoskie, North Carolina Regional Weather

Lat: 36.29N, Lon: 76.99W
Wx Zone: NCZ013
Warning FLW WEATHER ALERT - (More Info. Click Here) Warning
Feedback
Expires:201807211000;;815665
ASUS42 KMHX 210925
RWRMHX
WEATHER ROUNDUP FOR EASTERN NORTH CAROLINA
NATIONAL WEATHER SERVICE NEWPORT/MOREHEAD CITY NC
500 AM EDT SAT JUL 21 2018

NOTE: "FAIR" INDICATES FEW OR NO CLOUDS BELOW 12,000 FEET
WITH NO SIGNIFICANT WEATHER AND/OR OBSTRUCTIONS TO VISIBILITY


NCZ011>013-027>030-043-044-078>080-089-090>093-098-211000-
COASTAL PLAIN
  
CITY           SKY/WX    TMP DP  RH WIND       PRES   REMARKS
AHOSKIE        CLOUDY    67  67 100 MISG      29.88F                  
CLINTON        CLOUDY    71  71 100 N5        29.84F                  
ELIZABETHTOWN  CLOUDY    72  69  92 NW9       29.85R                  
GOLDSBORO      CLOUDY    71  69  95 NE9       29.83S                  
GREENVILLE     LGT RAIN  70  70 100 NE7       29.87F                  
HAVELOCK       LGT RAIN  72  72 100 E7        29.82F                  
KENANSVILLE    DRIZZLE   72  70  94 N9        29.83S FOG              
KINSTON        RAIN      71  70  98 NE7       29.84F                  
NEW BERN       LGT RAIN  72  72 100 E8        29.82F                  
RICHLANDS      RAIN      73  73 100 N7        29.81S FOG              
ROCKY MOUNT    CLOUDY    71  68  90 N9        29.87F                  
WASHINGTON     RAIN      71  70  98 NE5       29.84F                  
WHITEVILLE     CLOUDY    72  71  96 NW5       29.84R                  

$$


SKY/WX - Weather  TMP - Temperature  DP - Dewpoint  RH - Relative Humidity
WIND - Wind Direction/Speed PRES - Barometric Pressure